Location: Praha
(50.0830°N, 14.4670°E)
Time: 09:29:44
(UTC+02:00)

ISS - Pass Details

Date: 06 May 2025
Orbit: 416 x 419 km, 51.6° (Epoch: 18 May)

Event Time Altitude Azimuth Distance (km) Brightness Sun altitude
Exits shadow 01:29:07 24° 73° (ENE) 925 -1.8 -23.0°
Drops below altitude 10° 01:30:34 10° 75° (ENE) 1,496 -0.7 -23.0°
Sets 01:32:40 0° 77° (ENE) 2,361 0.3 -23.0°
